Horseshoe Bay, TX

4:01 PM MDT on August 21, 2017 (GMT -0600)
Horseshoe Bay

Weather History for KDZB - November, 2013

Change the Weather History Date:

Wednesday, November 20, 2013

  Actual Average (KBMQ) Record (KBMQ)
Temperature  
Mean Temperature 65 °F -  
Max Temperature 74 °F 64 °F 84 °F (1996)
Min Temperature 56 °F 45 °F 32 °F (2000)
Growing Degree Days 15 (Base 50)    
Moisture  
Dew Point 57 °F    
Average Humidity 77    
Maximum Humidity 100    
Minimum Humidity 61    
Precipitation  
Precipitation 0.00 in - - ()
Sea Level Pressure  
Sea Level Pressure 29.95 in    
Wind  
Wind Speed 6 mph (SSE)    
Max Wind Speed 10 mph    
Max Gust Speed 18 mph    
Visibility 9 miles    
Events Rain    
Averages and records for this station are not official NWS values.
T = Trace of Precipitation, MM = Missing Value Source: NWS Daily Summary

Daily Weather History Graph

Daily Weather History Graph

Search for Another Location

Airport or City:

Trip Planner

Search our weather history database for the weather conditions in past years. The results will help you decide how hot, cold, wet, or windy it might be!

Date:

Astronomy

Nov. 20, 2013 Rise Set
Actual Time 6:03 AM MST 4:34 PM MST
Civil Twilight 5:38 AM MST 4:59 PM MST
Nautical Twilight 5:08 AM MST 5:29 PM MST
Astronomical Twilight 4:40 AM MST 5:57 PM MST
Moon 7:18 PM MST (11/20) 8:29 AM MST (11/20)
Length of Visible Light 11h 21m
Length of Day
10h 30m
Waning Gibbous, 91% of the Moon is Illuminated
Nov 20
Waning Gibbous
Nov 25
Last Quarter
Dec 2
New
Dec 9
First Quarter
Dec 17
Full

Hourly Weather History & Observations

Time (MST) Temp. Dew Point Humidity Pressure Visibility Wind Dir Wind Speed Gust Speed Precip Events Conditions
12:15 AM 59.2 °F 51.1 °F 74% 30.00 in 10.0 mi SSE 6.9 mph - N/A   Overcast
12:35 AM 59.4 °F 51.6 °F 76% 30.00 in 10.0 mi SSE 9.2 mph - N/A   Overcast
12:55 AM 59.2 °F 51.4 °F 75% 29.99 in 10.0 mi SSE 9.2 mph - N/A   Overcast
1:15 AM 59.0 °F 51.6 °F 76% 29.98 in 10.0 mi SSE 9.2 mph 16.1 mph N/A   Overcast
1:35 AM 58.5 °F 52.2 °F 80% 29.99 in 10.0 mi SSE 10.4 mph 17.3 mph N/A   Overcast
1:55 AM 57.7 °F 51.8 °F 81% 29.98 in 10.0 mi South 10.4 mph 18.4 mph N/A   Scattered Clouds
2:15 AM 56.8 °F 50.0 °F 78% 29.98 in 10.0 mi South 6.9 mph - N/A   Scattered Clouds
2:35 AM 57.2 °F 48.7 °F 73% 29.99 in 10.0 mi SSE 5.8 mph - N/A   Mostly Cloudy
2:55 AM 57.6 °F 48.6 °F 72% 29.99 in 10.0 mi SE 3.5 mph - N/A   Overcast
3:15 AM 57.7 °F 48.0 °F 70% 29.98 in 10.0 mi SE 4.6 mph - N/A   Overcast
3:35 AM 57.7 °F 48.4 °F 71% 29.98 in 10.0 mi SSE 4.6 mph - N/A   Overcast
3:55 AM 58.1 °F 49.8 °F 74% 29.98 in 10.0 mi SE 6.9 mph - N/A   Overcast
4:15 AM 57.7 °F 50.4 °F 76% 29.98 in 10.0 mi SE 4.6 mph - N/A   Overcast
4:35 AM 58.1 °F 50.7 °F 76% 29.98 in 10.0 mi SE 4.6 mph - N/A   Overcast
4:55 AM 58.1 °F 50.9 °F 77% 29.98 in 10.0 mi SSE 4.6 mph - N/A   Overcast
5:15 AM 58.1 °F 50.5 °F 76% 29.98 in 10.0 mi SE 3.5 mph - N/A   Overcast
5:35 AM 57.9 °F 50.5 °F 76% 29.99 in 10.0 mi South 3.5 mph - N/A   Overcast
5:55 AM 58.1 °F 50.9 °F 77% 29.98 in 10.0 mi SE 5.8 mph - N/A   Overcast
6:15 AM 58.1 °F 50.9 °F 77% 29.99 in 10.0 mi SSE 5.8 mph - N/A   Overcast
6:35 AM 58.1 °F 51.3 °F 78% 29.98 in 10.0 mi SE 5.8 mph - N/A   Overcast
6:55 AM 58.5 °F 51.8 °F 79% 29.99 in 10.0 mi SSE 5.8 mph - N/A   Overcast
7:15 AM 59.0 °F 52.2 °F 78% 29.98 in 10.0 mi SSE 8.1 mph - N/A   Overcast
7:35 AM 59.2 °F 52.3 °F 78% 29.98 in 10.0 mi SE 6.9 mph - N/A   Overcast
7:55 AM 60.1 °F 52.9 °F 77% 29.99 in 10.0 mi SSE 8.1 mph - N/A   Overcast
8:15 AM 60.3 °F 53.1 °F 77% 30.00 in 10.0 mi SSE 6.9 mph - N/A   Overcast
8:35 AM 61.2 °F 53.4 °F 76% 30.00 in 10.0 mi SSE 5.8 mph - N/A   Overcast
8:55 AM 61.7 °F 53.4 °F 74% 30.00 in 10.0 mi SE 4.6 mph - N/A   Overcast
9:15 AM 61.3 °F 53.8 °F 76% 30.00 in 10.0 mi SSE 3.5 mph - N/A   Overcast
9:35 AM 61.9 °F 54.5 °F 77% 29.99 in 10.0 mi South 6.9 mph - N/A   Overcast
9:55 AM 63.7 °F 55.4 °F 74% 29.99 in 10.0 mi South 9.2 mph - N/A   Overcast
10:15 AM 64.0 °F 55.6 °F 74% 29.99 in 10.0 mi SSE 4.6 mph - N/A   Overcast
10:35 AM 66.0 °F 56.3 °F 71% 29.98 in 10.0 mi South 5.8 mph - N/A   Overcast
10:55 AM 67.1 °F 56.5 °F 69% 29.97 in 10.0 mi South 4.6 mph - N/A   Overcast
11:15 AM 67.5 °F 57.0 °F 69% 29.96 in 10.0 mi SSE 5.8 mph - N/A   Overcast
11:35 AM 68.5 °F 57.4 °F 67% 29.95 in 10.0 mi SSE 5.8 mph - N/A   Overcast
11:55 AM 68.9 °F 57.7 °F 68% 29.93 in 10.0 mi South 4.6 mph - N/A   Overcast
12:15 PM 68.9 °F 58.3 °F 69% 29.92 in 10.0 mi South 4.6 mph - N/A   Overcast
12:35 PM 69.8 °F 58.6 °F 68% 29.92 in 10.0 mi South 6.9 mph - N/A   Overcast
12:55 PM 70.5 °F 59.0 °F 67% 29.91 in 10.0 mi South 9.2 mph - N/A   Overcast
1:15 PM 71.4 °F 59.0 °F 65% 29.90 in 10.0 mi SSE 5.8 mph - N/A   Overcast
1:35 PM 72.1 °F 59.2 °F 64% 29.90 in 10.0 mi SSE 4.6 mph - N/A   Overcast
1:55 PM 73.0 °F 59.9 °F 63% 29.88 in 10.0 mi SSE 5.8 mph - N/A   Overcast
2:15 PM 72.5 °F 59.9 °F 64% 29.88 in 10.0 mi South 4.6 mph - N/A   Overcast
2:35 PM 74.5 °F 60.4 °F 61% 29.88 in 10.0 mi South 9.2 mph - N/A   Mostly Cloudy
2:55 PM 73.4 °F 60.4 °F 64% 29.88 in 10.0 mi South 5.8 mph - N/A   Mostly Cloudy
3:15 PM 73.2 °F 60.3 °F 64% 29.89 in 10.0 mi SSE 6.9 mph - N/A   Overcast
3:35 PM 71.2 °F 59.9 °F 67% 29.90 in 10.0 mi SSE 5.8 mph - N/A   Overcast
3:55 PM 70.7 °F 59.5 °F 68% 29.90 in 10.0 mi SSE 8.1 mph - N/A   Overcast
4:15 PM 69.8 °F 59.0 °F 68% 29.91 in 10.0 mi SE 5.8 mph - N/A   Overcast
4:35 PM 69.1 °F 58.6 °F 69% 29.91 in 10.0 mi SE 5.8 mph - N/A   Overcast
4:55 PM 68.7 °F 58.8 °F 71% 29.92 in 10.0 mi SE 4.6 mph - N/A   Overcast
5:15 PM 68.5 °F 59.2 °F 72% 29.92 in 10.0 mi SSE 5.8 mph - N/A   Overcast
5:35 PM 68.4 °F 59.4 °F 73% 29.92 in 10.0 mi SE 3.5 mph - N/A   Overcast
5:55 PM 68.2 °F 59.9 °F 75% 29.92 in 10.0 mi ESE 5.8 mph - N/A   Overcast
6:15 PM 67.5 °F 59.5 °F 76% 29.92 in 10.0 mi SE 5.8 mph - N/A   Overcast
6:35 PM 67.6 °F 60.4 °F 78% 29.93 in 10.0 mi SE 6.9 mph - N/A   Overcast
6:55 PM 67.3 °F 60.8 °F 80% 29.93 in 10.0 mi SE 6.9 mph - N/A   Overcast
7:15 PM 67.1 °F 61.2 °F 81% 29.93 in 10.0 mi SE 6.9 mph - N/A   Overcast
7:35 PM 66.6 °F 61.2 °F 83% 29.93 in 10.0 mi SE 8.1 mph 17.3 mph N/A   Overcast
7:55 PM 66.2 °F 61.3 °F 84% 29.94 in 10.0 mi SE 8.1 mph - N/A   Overcast
8:15 PM 66.0 °F 61.7 °F 86% 29.94 in 10.0 mi SE 6.9 mph - N/A   Overcast
8:35 PM 65.8 °F 62.1 °F 88% 29.94 in 10.0 mi SE 5.8 mph - N/A   Overcast
8:55 PM 65.7 °F 62.6 °F 90% 29.95 in 10.0 mi SE 4.6 mph - N/A   Overcast
9:15 PM 65.7 °F 63.1 °F 92% 29.95 in 7.0 mi SE 4.6 mph - N/A Rain Rain
9:35 PM 65.5 °F 65.5 °F 100% 29.95 in 3.0 mi Calm Calm - N/A   Drizzle
9:55 PM 65.3 °F 65.3 °F 100% 29.95 in 2.5 mi SE 3.5 mph - N/A   Drizzle
10:15 PM 65.3 °F 65.3 °F 100% 29.94 in 3.0 mi SE 3.5 mph - N/A   Drizzle
10:35 PM 65.3 °F 65.3 °F 100% 29.94 in 3.0 mi SE 4.6 mph - N/A   Light Drizzle
10:55 PM 65.3 °F 65.3 °F 100% 29.95 in 3.0 mi SE 3.5 mph - N/A   Overcast
11:15 PM 65.5 °F 65.5 °F 100% 29.95 in 3.0 mi SE 4.6 mph - N/A   Overcast
11:35 PM 65.5 °F 65.5 °F 100% 29.95 in 1.8 mi SE 3.5 mph - N/A   Light Drizzle
11:55 PM 65.5 °F 65.5 °F 100% 29.94 in 1.0 mi SE 4.6 mph - N/A   Overcast